Hourly Data Report for October 05, 2014

All times are specified in Local Standard Time (LST). Add 1 hour to adjust for Daylight Saving Time where and when it is observed.

KAMLOOPS A
BRITISH COLUMBIA

50°42'09.000" N
120°26'55.000" W
345.30 m
1163781
71887
YKA

Download Data

Hourly Data (October 2014)
Hourly Data Report for October 5, 2014
Temp Definition
°C
Dew Point Temp Definition
°C
Rel Hum Definition
%
Wind Dir Definition
10's deg

Wind Spd Definition
km/h
Visibility Definition
km
Stn Press Definition
kPa
Hmdx Definition


Wind Chill Definition


Weather Definition


TIME
00:00 Legend Double Dagger 9.3 7.6 89 10 4 64.4 98.03     LegendNANA
01:00 Legend Double Dagger 7.4 6.2 92 9 5 64.4 98.02     Mainly Clear
02:00 Legend Double Dagger 7.7 6.5 92 36 2 64.4 98.04     LegendNANA
03:00 Legend Double Dagger 7.2 6.2 93 13 3 64.4 98.08     LegendNANA
04:00 Legend Double Dagger 7.2 6.3 94 10 4 64.4 98.12     Mainly Clear
05:00 Legend Double Dagger 7.3 6.6 95 11 8 64.4 98.10     LegendNANA
06:00 Legend Double Dagger 6.3 5.6 95 3 7 40.2 98.14     LegendNANA
07:00 Legend Double Dagger 6.8 5.9 94 4 4 32.2 98.13     Mostly Cloudy
08:00 Legend Double Dagger 8.3 7.1 92 8 9 16.1 98.19     LegendNANA
09:00 Legend Double Dagger 9.9 7.7 86 9 8 16.1 98.14     LegendNANA
10:00 Legend Double Dagger 12.3 8.2 76 10 14 24.1 98.07     Mainly Clear
11:00 Legend Double Dagger 14.1 8.8 70 9 4 64.4 98.00     LegendNANA
12:00 Legend Double Dagger 15.4 8.9 65 11 13 64.4 97.89     LegendNANA
13:00 Legend Double Dagger 17.9 9.4 57 10 13 64.4 97.79     Mainly Clear
14:00 Legend Double Dagger 17.5 9.5 59 8 10 64.4 97.72     LegendNANA
15:00 Legend Double Dagger 18.6 10.0 57 9 13 64.4 97.63     LegendNANA
16:00 Legend Double Dagger 19.2 10.6 57 9 12 64.4 97.58     Mostly Cloudy
17:00 Legend Double Dagger 17.6 10.3 62 8 10 64.4 97.53     LegendNANA
18:00 Legend Double Dagger 16.2 10.4 68 9 14 64.4 97.50     LegendNANA
19:00 Legend Double Dagger 15.4 10.4 72 8 13 64.4 97.54     Mostly Cloudy
20:00 Legend Double Dagger 14.6 10.5 76 9 15 64.4 97.51     LegendNANA
21:00 Legend Double Dagger 13.6 10.4 81 9 16 64.4 97.45     LegendNANA
22:00 Legend Double Dagger 13.3 10.5 83 36 1 64.4 97.47     Mostly Cloudy
23:00 Legend Double Dagger 12.2 9.8 85 7 6 64.4 97.43     LegendNANA

Notes on Data Quality.

Legend

  • E = Estimated
  • M = Missing
  • NA = Not Available
  • ‡ = Partner data that is not subject to review by the National Climate Archives
Date modified: